Location: Zilina
(49.2167°N, 18.7333°E)
Time: 03:22:13
(UTC+02:00)

ISS - Pass Details

Date: 30 March 2018
Orbit: 402 x 408 km, 51.6° (Epoch: 20 July)

Event Time Altitude Azimuth Distance (km) Brightness Sun altitude
Rises 21:56:36 0° 282° (WNW) 2,358 1.0 -25.0°
Reaches altitude 10° 21:58:43 10° 287° (WNW) 1,495 -0.1 -25.2°
Enters shadow 22:00:38 30° 300° (WNW) 779 -1.8 -25.5°
